Wind_Speed
41 42 43 45 46 48 49 50 50 51 53 55 56 57 58 59 60 61 62 63 63 62 62 62 61 61 61 61 61 61 61 61 61 61 61 61 60 58 56 54 53 53 53
42 43 45 46 47 49 52 53 52 52 53 54 55 56 57 58 59 59 60 61 62 62 62 62 62 61 60 60 61 62 62 63 63 62 62 62 62 61 59 56 54 52 53
44 46 48 50 51 53 55 57 59 60 60 61 62 63 63 63 64 65 65 64 64 63 63 63 62 61 61 61 61 62 63 63 63 63 62 63 63 62 61 60 57 51 49
50 53 56 57 58 60 62 65 67 68 70 71 72 73 73 72 71 71 72 71 70 69 69 68 66 64 63 63 63 63 63 63 63 62 62 63 63 62 61 61 61 59 57
60 63 66 67 68 70 72 74 75 76 78 79 80 80 79 78 77 76 76 76 75 73 72 70 68 67 65 64 63 63 63 63 63 62 62 62 62 62 62 61 61 62 62
70 73 74 76 77 79 81 82 83 84 84 84 84 83 81 78 77 75 73 74 76 75 71 69 68 67 65 63 62 62 62 62 63 63 61 60 60 60 60 61 62 62 62
75 76 78 80 81 83 85 85 84 83 82 82 80 78 75 72 70 67 66 66 67 67 66 65 65 64 63 61 60 61 61 62 62 61 60 59 58 58 58 60 62 64 63
76 79 81 83 84 84 84 83 81 78 75 71 68 65 62 60 58 56 56 57 58 57 58 59 60 61 59 57 56 58 59 60 60 59 58 57 57 57 58 59 61 62 63
78 80 81 81 81 80 77 75 71 69 66 63 61 60 61 61 60 58 55 55 55 56 57 56 58 59 56 53 54 56 57 59 60 59 57 56 56 56 56 57 58 60 61
79 79 79 78 74 69 64 61 61 62 64 66 66 66 66 65 63 60 57 55 52 54 54 53 54 54 51 50 49 49 49 48 49 49 50 51 52 54 55 57 58 58 58
77 75 72 66 59 55 55 57 59 61 62 62 60 59 57 56 55 54 54 53 52 52 53 51 50 50 48 45 43 41 41 43 44 47 48 49 51 53 54 56 56 57 57
68 64 57 51 49 50 51 52 54 54 50 46 42 40 38 39 41 44 47 48 47 48 50 50 47 46 45 41 38 37 39 41 44 46 49 51 52 53 52 52 53 55 56
58 52 47 45 45 46 47 47 49 47 42 38 35 34 33 32 32 33 36 39 40 40 42 43 42 41 39 38 37 38 38 39 41 43 46 49 51 51 50 51 52 54 55
50 45 42 42 41 44 45 44 44 42 38 36 35 35 34 30 28 27 28 29 31 33 35 36 37 37 36 35 37 38 38 38 38 38 40 43 45 47 47 48 49 51 51
44 40 39 39 39 42 43 41 40 39 36 34 35 36 34 27 22 20 20 21 23 26 29 29 29 30 31 33 35 37 39 37 36 36 36 37 39 40 41 43 44 44 44
41 38 36 36 38 40 41 39 37 37 34 33 34 36 33 23 15 11 11 14 17 20 24 26 27 29 29 30 33 37 39 37 36 37 37 36 36 38 38 38 40 41 41
37 35 33 34 37 38 39 38 37 36 33 31 30 32 30 22 14 9 9 12 16 19 22 25 27 29 29 30 33 37 37 35 36 36 35 34 33 35 36 37 39 40 41
34 32 31 33 35 37 38 38 37 35 33 30 27 27 26 21 14 11 10 12 15 18 21 22 24 27 30 32 34 35 34 34 34 33 31 30 30 33 38 38 38 39 40
34 32 33 34 36 37 38 38 37 35 33 30 28 26 24 20 16 13 12 13 14 17 19 22 24 26 28 30 32 33 33 33 34 33 31 29 28 30 34 36 37 38 39
34 34 35 36 37 39 40 39 38 36 34 32 30 28 26 23 20 17 15 15 16 18 20 21 23 25 28 30 32 33 34 36 35 33 31 31 30 29 30 31 33 35 37
36 36 37 38 39 41 42 41 39 37 35 33 32 31 30 28 25 23 22 21 22 23 24 26 29 31 32 32 33 35 37 37 37 34 33 33 32 31 30 30 32 33 35
39 39 40 41 42 44 44 44 42 40 38 36 34 33 32 32 31 30 29 29 29 30 31 32 33 35 35 35 35 36 38 38 37 36 35 35 34 33 32 32 33 34 36
43 43 44 45 46 47 46 45 44 42 39 37 35 34 34 34 34 34 35 35 36 37 38 38 39 39 39 39 39 39 39 41 41 39 38 38 38 38 38 37 37 37 38
46 47 47 48 48 48 47 46 45 43 40 37 35 34 34 34 35 36 37 38 39 41 42 43 44 45 46 46 45 45 44 44 45 45 45 44 43 43 43 43 42 42 42
49 50 51 51 50 49 48 47 46 44 42 40 38 36 36 36 36 38 39 40 41 43 44 46 47 48 50 52 53 53 52 51 51 51 51 51 50 49 49 48 48 47 46
52 54 54 54 52 51 50 50 49 47 45 43 42 41 41 40 41 41 42 43 44 45 46 47 48 49 51 53 55 57 58 58 58 58 57 57 57 57 55 55 54 53 52
Wind_Direction
295 294 294 293 292 290 290 289 287 284 281 278 277 276 276 275 275 274 274 272 271 270 269 269 268 267 267 267 267 267 266 264 263 262 261 261 261 262 262 261 260 260 261
301 300 299 298 295 293 292 292 291 289 285 282 279 278 277 277 277 277 276 275 273 271 270 269 268 268 268 268 268 267 266 265 264 263 261 261 260 260 260 258 257 257 258
304 303 301 299 296 294 293 294 294 293 291 288 286 284 283 282 281 280 279 277 276 274 273 272 270 269 268 267 266 266 265 265 264 262 261 260 260 260 259 257 255 253 254
304 303 301 299 298 297 296 296 296 295 294 293 291 289 287 285 283 282 281 279 278 275 273 272 271 269 268 266 264 263 263 263 263 262 261 261 260 259 257 256 254 252 251
306 306 305 303 301 300 298 297 296 295 294 293 291 290 289 287 285 282 280 278 276 273 272 271 269 267 265 263 261 261 260 261 261 261 260 259 258 257 256 254 252 252 252
308 308 306 304 302 301 299 298 296 295 294 293 292 290 288 286 283 280 276 274 273 271 269 266 264 263 261 259 257 256 255 256 257 258 258 257 256 257 256 254 251 250 252
310 307 304 302 301 300 299 298 297 296 295 293 291 289 286 283 280 276 272 268 267 266 264 261 260 259 257 255 254 253 252 252 253 255 255 255 256 256 256 254 253 251 251
309 307 306 305 303 302 301 300 298 296 294 291 288 285 282 280 279 276 271 265 261 260 260 259 258 258 256 253 251 252 251 252 253 253 253 255 256 255 254 254 254 254 252
309 307 306 305 304 303 303 302 300 298 296 292 286 281 279 279 278 277 272 266 260 256 257 258 256 255 254 254 256 254 252 253 253 251 251 254 254 254 254 254 255 254 253
308 307 305 304 305 305 305 305 305 303 300 295 289 283 279 276 274 272 268 263 259 253 252 254 253 253 254 256 254 251 251 253 254 253 254 254 254 254 254 254 255 254 252
307 305 304 305 306 307 309 311 312 311 307 301 296 289 283 276 270 265 262 259 255 252 248 248 248 249 251 252 249 247 251 256 257 257 256 255 255 255 255 254 253 251 250
304 306 307 308 310 313 317 319 321 322 319 315 310 304 296 285 274 266 262 258 255 252 249 248 248 248 249 249 248 251 254 256 258 258 257 256 255 255 255 253 249 246 247
309 309 309 312 316 321 324 327 331 332 329 325 321 317 310 297 283 272 264 258 254 252 249 246 248 246 246 245 249 252 255 259 260 260 259 256 254 253 253 251 246 244 243
312 311 311 315 320 326 329 332 336 336 332 329 327 323 318 305 291 279 267 257 248 245 243 243 244 243 245 248 253 255 257 260 260 262 261 257 253 252 251 249 246 243 240
313 313 315 319 325 327 331 333 336 336 334 333 333 332 328 316 298 281 268 254 242 239 237 241 243 245 248 252 256 257 260 259 260 264 264 260 256 252 251 249 242 234 231
315 316 319 323 327 329 331 333 333 333 333 333 337 341 342 336 319 289 260 247 241 238 237 240 242 244 247 251 256 259 260 259 262 267 266 261 256 251 249 243 232 226 226
321 321 322 326 330 331 332 333 332 331 330 330 334 341 347 345 333 303 265 249 241 239 241 243 244 246 248 251 257 259 260 261 266 268 264 258 253 248 243 236 230 226 226
324 323 324 329 331 332 332 332 333 331 328 324 326 333 341 342 330 308 282 262 250 243 243 243 243 247 251 255 258 259 261 264 266 265 260 255 250 246 238 233 231 229 230
328 327 328 330 332 332 331 330 331 330 327 321 317 319 324 328 324 305 286 272 261 252 246 243 244 248 252 254 255 256 259 263 264 262 258 253 246 241 238 234 233 234 235
331 329 329 330 331 331 330 328 326 324 323 319 312 307 306 307 307 300 287 276 267 259 253 250 251 255 259 259 257 255 257 259 260 258 253 247 241 238 240 241 241 242 243
333 330 329 329 329 329 328 327 325 322 318 315 310 303 297 293 289 286 281 274 268 264 260 258 259 260 261 261 259 259 259 259 258 255 250 245 240 240 243 246 249 250 251
335 331 329 327 326 325 325 325 324 322 318 313 308 301 295 290 284 278 274 270 267 265 263 262 262 261 261 260 259 259 258 257 255 254 252 248 245 245 247 250 254 256 258
334 332 329 327 325 324 323 323 322 320 317 313 308 302 296 290 285 280 275 270 267 265 264 263 262 262 261 262 262 261 259 256 253 252 252 251 250 249 250 252 255 258 261
331 330 328 326 324 323 322 321 320 318 316 312 307 303 298 293 287 283 279 275 271 269 266 265 264 263 262 261 262 262 261 259 256 253 253 252 253 253 253 255 257 259 262
330 328 327 325 324 323 322 321 319 318 314 311 307 302 298 294 289 284 280 277 274 272 269 267 266 264 263 261 260 260 260 259 258 257 256 256 256 257 257 257 258 260 261
329 327 326 324 323 321 321 319 317 315 312 308 304 300 296 292 289 285 281 277 275 272 269 267 265 263 261 260 259 258 258 258 258 258 258 257 258 258 258 258 259 259 260
Height
5755 5752 5748 5744 5741 5737 5733 5729 5725 5722 5718 5715 5712 5710 5708 5705 5704 5702 5700 5699 5698 5698 5697 5698 5698 5699 5700 5700 5701 5702 5704 5705 5707 5708 5710 5711 5713 5716 5719 5721 5722 5723 5724
5744 5740 5736 5732 5728 5723 5719 5714 5710 5706 5702 5699 5696 5694 5692 5689 5687 5685 5684 5682 5681 5680 5681 5680 5681 5681 5683 5684 5685 5686 5687 5689 5690 5692 5694 5696 5699 5701 5704 5706 5708 5710 5711
5732 5727 5722 5718 5713 5709 5704 5699 5694 5690 5686 5682 5679 5675 5673 5671 5669 5666 5665 5664 5663 5662 5662 5662 5663 5664 5666 5667 5668 5669 5670 5672 5673 5675 5677 5679 5682 5685 5688 5690 5693 5695 5697
5719 5714 5708 5703 5697 5692 5686 5681 5675 5670 5666 5661 5657 5653 5651 5649 5646 5643 5642 5642 5642 5641 5641 5642 5642 5644 5647 5649 5650 5651 5652 5654 5656 5657 5659 5662 5665 5668 5672 5674 5676 5679 5682
5705 5698 5691 5686 5680 5673 5667 5660 5654 5648 5643 5638 5633 5628 5624 5622 5620 5618 5616 5616 5617 5617 5618 5619 5620 5622 5625 5628 5630 5632 5634 5636 5638 5641 5643 5645 5647 5650 5654 5658 5660 5663 5665
5688 5680 5673 5665 5658 5651 5644 5637 5630 5624 5618 5612 5607 5601 5597 5595 5593 5592 5590 5589 5590 5592 5594 5596 5598 5600 5603 5607 5609 5612 5615 5617 5620 5623 5626 5628 5631 5633 5636 5640 5644 5647 5650
5671 5662 5653 5645 5637 5629 5620 5613 5606 5599 5592 5585 5580 5574 5570 5567 5566 5565 5564 5563 5564 5567 5570 5574 5576 5579 5583 5587 5590 5593 5596 5599 5602 5605 5608 5612 5615 5617 5620 5623 5626 5631 5635
5652 5641 5631 5622 5612 5603 5594 5586 5579 5573 5567 5560 5555 5549 5544 5542 5541 5541 5541 5541 5543 5546 5549 5554 5557 5560 5565 5569 5572 5575 5578 5581 5585 5588 5591 5594 5598 5601 5604 5607 5610 5614 5619
5630 5619 5609 5599 5589 5580 5571 5563 5555 5548 5542 5537 5532 5528 5523 5520 5519 5520 5521 5522 5525 5529 5533 5538 5540 5544 5549 5553 5558 5561 5563 5566 5569 5572 5575 5578 5582 5585 5588 5591 5594 5598 5603
5610 5599 5588 5578 5570 5562 5554 5546 5537 5529 5521 5513 5507 5502 5499 5496 5495 5496 5498 5502 5507 5512 5516 5521 5525 5529 5534 5539 5543 5546 5548 5551 5554 5557 5560 5563 5566 5569 5572 5575 5578 5582 5587
5591 5581 5572 5564 5556 5549 5541 5532 5522 5511 5500 5489 5481 5475 5472 5471 5472 5474 5477 5482 5489 5494 5499 5505 5511 5516 5522 5526 5530 5532 5535 5538 5541 5543 5546 5549 5551 5554 5556 5559 5562 5567 5571
5576 5566 5557 5550 5544 5537 5528 5519 5508 5495 5483 5474 5466 5459 5455 5454 5454 5456 5459 5465 5471 5477 5483 5490 5496 5503 5509 5514 5517 5520 5522 5525 5527 5529 5531 5534 5536 5538 5540 5543 5547 5551 5556
5561 5552 5545 5539 5532 5525 5517 5507 5497 5485 5475 5467 5460 5454 5449 5445 5443 5444 5446 5450 5456 5463 5469 5477 5484 5491 5497 5501 5504 5507 5509 5511 5513 5515 5517 5518 5520 5522 5524 5528 5531 5536 5541
5548 5541 5535 5530 5523 5515 5507 5498 5489 5480 5471 5464 5456 5450 5443 5438 5435 5435 5436 5439 5445 5451 5458 5466 5473 5479 5484 5488 5492 5494 5496 5498 5500 5502 5503 5504 5505 5507 5509 5512 5516 5522 5527
5538 5531 5526 5521 5514 5507 5500 5491 5483 5475 5468 5460 5453 5445 5437 5431 5428 5427 5429 5432 5437 5443 5449 5456 5462 5467 5472 5476 5479 5481 5484 5486 5488 5490 5491 5491 5492 5493 5496 5499 5503 5508 5514
5527 5522 5518 5512 5506 5500 5493 5486 5479 5472 5465 5458 5451 5443 5434 5428 5425 5424 5425 5429 5433 5437 5443 5448 5453 5458 5462 5466 5468 5470 5473 5474 5476 5477 5479 5480 5480 5482 5485 5488 5492 5498 5504
5518 5514 5510 5505 5499 5493 5486 5480 5474 5468 5461 5455 5449 5442 5435 5430 5426 5425 5426 5427 5430 5434 5438 5442 5445 5449 5453 5455 5457 5459 5461 5463 5464 5466 5466 5468 5470 5472 5475 5478 5482 5488 5494
5513 5508 5504 5499 5493 5486 5480 5475 5469 5463 5457 5452 5446 5441 5436 5432 5428 5426 5426 5426 5428 5430 5432 5435 5437 5440 5443 5445 5447 5449 5450 5452 5454 5455 5455 5457 5460 5462 5464 5468 5473 5479 5484
5508 5503 5498 5492 5486 5480 5474 5469 5463 5458 5453 5448 5443 5439 5435 5431 5428 5426 5424 5424 5424 5425 5426 5428 5430 5432 5434 5436 5437 5439 5441 5442 5444 5445 5446 5448 5450 5453 5456 5460 5465 5470 5474
5504 5499 5493 5487 5481 5475 5469 5463 5457 5452 5447 5443 5438 5434 5431 5428 5426 5423 5422 5420 5420 5420 5421 5422 5423 5424 5426 5427 5428 5430 5431 5432 5434 5436 5437 5439 5441 5444 5447 5452 5456 5459 5463
5500 5494 5488 5482 5476 5469 5463 5456 5450 5445 5440 5435 5431 5427 5424 5422 5419 5418 5416 5415 5415 5414 5414 5415 5415 5416 5417 5417 5418 5419 5420 5422 5423 5425 5427 5429 5431 5435 5438 5441 5444 5448 5451
5496 5489 5483 5476 5469 5463 5456 5449 5443 5437 5431 5426 5422 5418 5415 5413 5411 5409 5408 5407 5406 5406 5405 5405 5405 5406 5406 5406 5407 5408 5408 5410 5412 5414 5416 5418 5421 5423 5426 5429 5432 5435 5438
5491 5484 5476 5469 5462 5455 5448 5441 5434 5427 5421 5416 5411 5407 5404 5401 5400 5398 5397 5396 5395 5394 5393 5393 5393 5393 5393 5393 5394 5395 5396 5397 5399 5401 5403 5406 5408 5411 5413 5416 5418 5421 5423
5485 5477 5469 5462 5454 5446 5438 5431 5424 5417 5411 5406 5401 5396 5393 5389 5387 5385 5384 5382 5381 5380 5379 5379 5378 5378 5378 5379 5380 5380 5381 5383 5384 5386 5389 5392 5394 5396 5399 5401 5404 5406 5408
5478 5469 5461 5452 5444 5436 5428 5420 5413 5407 5401 5395 5390 5385 5381 5377 5374 5371 5369 5367 5366 5364 5363 5363 5362 5362 5362 5362 5363 5364 5366 5367 5368 5370 5372 5375 5377 5380 5382 5385 5388 5390 5392
5470 5461 5452 5442 5433 5425 5417 5409 5402 5395 5389 5383 5378 5373 5368 5364 5360 5356 5353 5350 5348 5346 5345 5344 5343 5343 5343 5343 5343 5344 5346 5348 5349 5351 5353 5356 5358 5361 5364 5367 5370 5373 5376